Aérodrome :
LOGIN :

S'inscrire | Disclaimer

   EN    FR    IT 

 










Légende :    VFR   VFR Marginal   IFR   IFR Intensif   IFR Très Intensif
Visi : 
Plafond : 
>= 8 km
>= 3000ft
5 à 8 km
1000 à 3000 ft
1500m à 5 km
500 à 1000 ft
800 à 1500m
200 à 500 ft
< 800m
< 200 ft
Symboles :   Orages  Brouillard  Fortes neiges  Fortes précipitations  Vent > 20 kt
SIGMETs :   Divers  Orages  Givrage  Turbulence  Onde Orograph.  Cendres Volcan.







- Altitude de l'aérodrome : 325 ft
- Code IATA : POX
- Voir les cartes d'approche


LFPT - Pontoise

DERNIER METAR :
  • 231800Z AUTO 04006KT 9000 FEW028 OVC034 11/07 Q1029

METARs EXPIRÉS :
  • 231730Z AUTO 04006KT 9999 OVC032 11/07 Q1029
  • 231700Z AUTO 04009KT 9999 OVC031 11/06 Q1029
  • 231630Z AUTO 03009KT 9999 FEW026 OVC034 11/06 Q1029
  • 231600Z AUTO 05009KT 9999 BKN030 OVC035 11/06 Q1029
  • 231530Z AUTO 05010KT 9999 FEW027 OVC034 12/06 Q1029

TAF N/A
ATIS : +33 1 30 30 52 08
Pas de NOTAMs connus pour ce terrain.



MET'MAP, la Météo Aéronautique d'un coup d'oeil ! - Copyright ORBIFLY Décembre 2007 - Disclaimer

ORBIFLY MET'MAP TEAM :

Programmation & Développement : Alexandra Zaïnal
Conception & Développement : Baudouin d'Aumeries
Co-Programmation & Développement : Marc-Olivier Méhu
Soutien technique & logistique : Manuel Goepfert

Contact : metmap@orbifly.com




SOURCES & CREDITS :

   NOAA